#timestamp,LO_Frequency,Hit 
1501848015.7,286047007.6,N
1501848035.5,286047004.7,N
1501848055.4,286047004.5,N
1501848075.2,286047006.4,N
1501848095.0,286047011.6,N
1501848095.9,286047011.6,N
1501848115.8,286047010.3,N
1501848135.6,286047005.2,N
1501848155.4,286047003.5,N
1501848175.2,286047003.4,N
1501848195.1,286047007.5,N
1501848196.0,286047007.5,N
1501848215.8,286047009.9,N
1501848235.6,286047012.4,N
1501848255.5,286047014.1,N
1501848275.3,286047014.1,N
1501848295.1,286047018.6,N
1501848315.9,286047019.2,N
1501848335.7,286047020.6,N
1501848355.5,286047024.9,N
1501848375.4,286047025.5,N
1501848395.2,286047023.4,N
1501848415.0,286047021.2,N
1501848415.9,286047021.2,N
1501848435.8,286047015.1,N
1501848455.6,286047007.8,N
1501848475.4,286047005.0,N
1501848495.3,286047000.1,N
1501848515.1,286046997.2,N
1501848516.0,286046997.2,N
1501848535.8,286046997.3,N
1501848555.6,286046993.7,N
1501848575.5,286046990.8,N
1501848595.3,286046989.3,N
1501848615.1,286046987.1,N
1501848635.9,286046985.5,N
1501848655.7,286046988.1,N
1501848675.5,286046984.0,N
1501848695.4,286046983.2,N
1501848715.2,286046982.3,N
1501848735.0,286046982.1,N
1501848735.9,286046982.1,N
1501848755.8,286046980.6,N
1501848775.6,286046979.9,N
1501848795.4,286046979.0,N
1501848815.3,286046983.0,N
1501848835.1,286046984.6,N
1501848836.0,286046984.6,N
1501848855.8,286046985.1,N
1501848875.7,286046982.8,N
1501848895.5,286046981.3,N
1501848915.3,286046984.4,N
1501848935.2,286046983.8,N
1501848955.9,286046986.7,N
1501848975.7,286046983.9,N
1501848995.5,286046984.5,N
1501849015.4,286046980.8,N
1501849035.2,286046980.1,P
1501849055.1,286046992.7,N
1501849056.0,286046992.7,N
1501849075.8,286046994.4,N
1501849095.6,286046991.8,N
1501849115.5,286046988.7,N
1501849135.3,286046989.9,N
1501849155.2,286046986.9,P
1501849175.9,286046997.1,N
1501849195.7,286046996.3,N
1501849215.5,286046991.7,N
1501849235.4,286046994.0,N
1501849255.2,286046992.5,N
1501849275.0,286046994.3,N
1501849275.9,286046994.3,N
1501849295.8,286046995.8,N
1501849315.6,286046991.7,N
1501849335.4,286046992.8,N
1501849355.3,286046991.6,P
1501849375.1,286046998.0,N
1501849395.8,286046995.3,N
1501849415.7,286046998.8,N
1501849435.5,286047003.8,N
1501849455.3,286047005.4,N
1501849475.2,286047007.0,N
1501849495.9,286047005.3,N
1501849515.7,286047008.9,N
1501849535.6,286047015.2,N
1501849555.4,286047016.2,N
1501849575.2,286047021.1,N
1501849595.1,286047027.6,P
1501849596.0,286047027.6,N
1501849615.8,286047026.9,N
1501849635.6,286047029.7,P
1501849655.5,286047007.9,N
1501849675.3,286047015.0,N
1501849695.1,286047013.1,N
1501849715.9,286047018.7,N
1501849735.7,286047016.0,N
1501849755.5,286047016.8,N
1501849775.4,286047016.9,N
1501849795.2,286047018.7,P
1501849815.0,286046998.6,N
1501849815.9,286046998.6,N
1501849835.8,286046999.8,N
1501849855.6,286047004.2,N
1501849875.4,286047006.4,N
1501849895.3,286047009.0,N
1501849915.1,286047010.7,N
1501849916.0,286047010.7,N
1501849935.8,286047009.8,N
1501849955.7,286047012.7,N
1501849975.5,286047016.0,N
1501849995.3,286047016.1,N
1501850015.2,286047020.3,P
1501850035.9,286047010.6,N
1501850055.7,286047009.8,N
1501850075.6,286047012.8,N
1501850095.4,286047016.4,P
1501850115.2,286047005.6,N
1501850135.1,286047001.8,N
1501850136.0,286047001.8,N
1501850155.8,286047003.0,N
1501850175.6,286047003.6,N
1501850195.5,286047005.9,N
1501850215.3,286047000.3,N
1501850235.1,286046999.7,N
1501850255.9,286046995.3,N
1501850275.7,286046993.2,N
1501850295.5,286046990.6,N
1501850315.4,286046994.9,N
1501850335.2,286046999.0,N
1501850355.0,286047000.6,N
1501850355.9,286047000.6,N
1501850375.8,286046996.8,N
1501850395.6,286046997.4,N
1501850415.4,286046994.8,N
1501850435.2,286046995.3,N
1501850455.1,286046992.2,N
1501850456.0,286046992.2,N
1501850475.8,286046990.7,N
1501850495.6,286046994.3,N
1501850515.5,286046990.8,N
1501850535.3,286046988.4,N
1501850555.1,286046990.8,N
1501850575.9,286046987.1,N
1501850595.7,286046986.2,N
1501850615.5,286046988.1,N
1501850635.4,286046989.8,N
1501850655.2,286046993.1,N
1501850675.0,286046993.9,N
1501850675.9,286046993.9,N
1501850695.8,286046997.2,N
1501850715.6,286047004.0,N
1501850735.4,286047005.8,N
1501850755.3,286047007.3,N
1501850775.1,286047009.5,N
1501850776.0,286047009.5,N
1501850795.8,286047012.7,N
1501850815.7,286047012.7,N
1501850835.5,286047013.5,N
1501850855.3,286047012.3,N
1501850875.2,286047013.7,N
1501850895.9,286047012.3,N
1501850915.7,286047012.6,N
1501850935.5,286047009.4,N
1501850955.4,286047006.3,N
1501850975.2,286047003.7,N
1501850995.0,286046999.5,N
1501850995.9,286046999.5,N
1501851015.8,286046997.0,N
1501851035.8,286046991.7,N
1501851055.6,286046990.6,N
1501851075.5,286046991.5,N
1501851095.3,286046986.9,N
1501851115.1,286046992.0,N
1501851135.9,286046988.8,N
1501851155.7,286046990.5,N
1501851175.5,286046996.7,N
1501851195.4,286046998.2,N
1501851215.2,286047003.6,N
1501851235.0,286047001.6,N
1501851235.9,286047001.6,N
1501851255.8,286046998.6,N
1501851275.6,286047002.1,N
1501851295.4,286047000.0,N
1501851315.2,286047005.2,N
1501851335.1,286047006.1,N
1501851336.0,286047006.1,N
1501851355.8,286047009.8,N
1501851375.7,286047011.4,N
1501851395.5,286047013.5,N
1501851415.3,286047012.1,N
1501851435.1,286047012.1,N
1501851455.9,286047009.0,N
1501851475.7,286047003.1,N
1501851495.5,286047002.9,N
1501851515.4,286047004.3,N
1501851535.2,286047001.8,N
1501851555.0,286047003.8,N
1501851555.9,286047003.8,N
1501851575.8,286047005.8,N
1501851595.6,286047007.3,N
